Location: Béaulencourt
(50.0796°N, 2.8795°E)
Time: 00:52:44
(UTC+00:00)

Timation 2 Rocket - Pass Details

Date: 20 January 2026
Orbit: 907 x 1072 km, 70.0° (Epoch: 17 February)

Event Time Altitude Azimuth Distance (km) Brightness Sun altitude
Exits shadow 05:45:41 15° 237° (WSW) 2,420 5.7 -17.5°
Maximum altitude 05:50:54 50° 309° (NW) 1,233 4.2 -16.6°
Drops below altitude 10° 05:56:59 10° 25° (NNE) 2,689 6.5 -15.7°
Sets 05:59:34 0° 31° (NNE) 3,616 7.2 -15.3°
